TCA7378 SVMT-SVBC

Flight info

Callsign TCA7378
Flight time 0h 27m
Altitude 20000
Route PARDU G443 BNA
Aircraft C25B/M-SDE2E3FGHRWXY/LB1

Departure

Time 2026-04-13 19:58
Airport José Tadeo Monagas International Airport (SVMT)

Arrival

Time 2026-04-13 20:26
Airport General José Antonio Anzoategui International Airport (SVBC)
Time Latitude Longitude Altitude Speed Heading
2026-04-13 19:46 9.74865 -63.15591 232 ft 0 kts 22°
2026-04-13 19:55 9.74871 -63.15588 232 ft 3 kts 43°
2026-04-13 19:55 9.74853 -63.15563 231 ft 9 kts 184°
2026-04-13 19:56 9.74791 -63.15619 232 ft 14 kts 227°
2026-04-13 19:56 9.74724 -63.15695 232 ft 15 kts 228°
2026-04-13 19:56 9.74650 -63.15779 232 ft 16 kts 229°
2026-04-13 19:56 9.74572 -63.15869 233 ft 18 kts 229°
2026-04-13 19:57 9.74487 -63.15963 231 ft 19 kts 228°
2026-04-13 19:57 9.74399 -63.16062 231 ft 16 kts 227°
2026-04-13 19:57 9.74310 -63.16061 230 ft 12 kts 152°
2026-04-13 19:57 9.74325 -63.16003 230 ft 28 kts 48°
2026-04-13 19:58 9.74733 -63.15538 267 ft 141 kts 48°
2026-04-13 19:58 9.75504 -63.14689 1114 ft 181 kts 48°
2026-04-13 19:58 9.76416 -63.13677 2385 ft 207 kts 49°
2026-04-13 19:58 9.77444 -63.12553 3279 ft 227 kts 48°
2026-04-13 19:59 9.78663 -63.11524 4215 ft 234 kts 26°
2026-04-13 19:59 9.80291 -63.11507 5292 ft 244 kts 342°
2026-04-13 19:59 9.81597 -63.12576 6410 ft 253 kts 305°
2026-04-13 19:59 9.82382 -63.14192 7444 ft 258 kts 299°
2026-04-13 20:00 9.83414 -63.15685 8514 ft 261 kts 309°
2026-04-13 20:00 9.84472 -63.17200 9545 ft 265 kts 303°
2026-04-13 20:00 9.85445 -63.18801 10540 ft 268 kts 301°
2026-04-13 20:00 9.86424 -63.20412 11542 ft 270 kts 302°
2026-04-13 20:01 9.87442 -63.22040 12466 ft 275 kts 301°
2026-04-13 20:01 9.88475 -63.23687 13392 ft 279 kts 301°
2026-04-13 20:01 9.89499 -63.25329 14345 ft 279 kts 300°
2026-04-13 20:01 9.90533 -63.26998 15316 ft 279 kts 300°
2026-04-13 20:02 9.91576 -63.28665 16233 ft 281 kts 300°
2026-04-13 20:02 9.92622 -63.30347 17111 ft 284 kts 300°
2026-04-13 20:02 9.93678 -63.32044 17993 ft 286 kts 299°
2026-04-13 20:02 9.94744 -63.33756 18812 ft 288 kts 299°
2026-04-13 20:03 9.95823 -63.35484 19596 ft 291 kts 299°
2026-04-13 20:03 9.96905 -63.37236 19996 ft 308 kts 299°
2026-04-13 20:03 9.98096 -63.39155 20009 ft 333 kts 299°
2026-04-13 20:03 9.99377 -63.41202 20007 ft 355 kts 300°
2026-04-13 20:04 10.00721 -63.43361 20012 ft 365 kts 299°
2026-04-13 20:04 10.02064 -63.45517 20013 ft 359 kts 299°
2026-04-13 20:04 10.03392 -63.47647 20012 ft 356 kts 299°
2026-04-13 20:04 10.04704 -63.49764 20004 ft 353 kts 299°
2026-04-13 20:05 10.06012 -63.51869 20011 ft 352 kts 299°
2026-04-13 20:05 10.07314 -63.53962 20011 ft 350 kts 299°
2026-04-13 20:05 10.08596 -63.56020 20010 ft 349 kts 299°
2026-04-13 20:05 10.09885 -63.58103 20011 ft 348 kts 299°
2026-04-13 20:06 10.11176 -63.60177 20006 ft 347 kts 299°
2026-04-13 20:06 10.12463 -63.62249 20009 ft 346 kts 299°
2026-04-13 20:06 10.13745 -63.64316 20007 ft 346 kts 299°
2026-04-13 20:06 10.15024 -63.66371 20006 ft 345 kts 299°
2026-04-13 20:07 10.16302 -63.68429 20008 ft 345 kts 299°
2026-04-13 20:07 10.17577 -63.70492 20005 ft 345 kts 299°
2026-04-13 20:07 10.18861 -63.72558 19930 ft 347 kts 299°
2026-04-13 20:07 10.20128 -63.74604 19923 ft 347 kts 299°
2026-04-13 20:08 10.21418 -63.76672 19924 ft 346 kts 299°
2026-04-13 20:08 10.22702 -63.78742 19925 ft 346 kts 299°
2026-04-13 20:08 10.23979 -63.80814 19926 ft 346 kts 299°
2026-04-13 20:08 10.25266 -63.82878 19923 ft 346 kts 299°
2026-04-13 20:09 10.26541 -63.84948 19922 ft 346 kts 299°
2026-04-13 20:09 10.27829 -63.87011 19923 ft 346 kts 299°
2026-04-13 20:09 10.29108 -63.89082 19922 ft 345 kts 299°
2026-04-13 20:09 10.30365 -63.91115 19922 ft 345 kts 299°
2026-04-13 20:10 10.31646 -63.93181 19922 ft 345 kts 299°
2026-04-13 20:10 10.32926 -63.95244 19923 ft 346 kts 299°
2026-04-13 20:10 10.34203 -63.97314 19921 ft 346 kts 299°
2026-04-13 20:10 10.35488 -63.99381 19924 ft 347 kts 299°
2026-04-13 20:11 10.36766 -64.01454 19922 ft 346 kts 299°
2026-04-13 20:11 10.38035 -64.03496 19786 ft 335 kts 299°
2026-04-13 20:11 10.39262 -64.05475 19352 ft 328 kts 299°
2026-04-13 20:11 10.40448 -64.07401 18902 ft 324 kts 299°
2026-04-13 20:12 10.41637 -64.09323 18450 ft 319 kts 299°
2026-04-13 20:12 10.42770 -64.11234 17994 ft 312 kts 294°
2026-04-13 20:12 10.43487 -64.13291 17561 ft 307 kts 283°
2026-04-13 20:12 10.43839 -64.15405 17126 ft 302 kts 271°
2026-04-13 20:13 10.43795 -64.17523 16700 ft 298 kts 262°
2026-04-13 20:13 10.43403 -64.19581 16284 ft 296 kts 257°
2026-04-13 20:13 10.43044 -64.21608 15871 ft 295 kts 259°
2026-04-13 20:13 10.42681 -64.23660 15454 ft 295 kts 258°
2026-04-13 20:14 10.42292 -64.25710 15035 ft 296 kts 258°
2026-04-13 20:14 10.41908 -64.27757 14617 ft 296 kts 258°
2026-04-13 20:14 10.41528 -64.29814 14197 ft 297 kts 258°
2026-04-13 20:14 10.41142 -64.31872 13776 ft 297 kts 258°
2026-04-13 20:15 10.40758 -64.33934 13353 ft 297 kts 258°
2026-04-13 20:15 10.40377 -64.35998 12935 ft 297 kts 258°
2026-04-13 20:15 10.39985 -64.38065 12512 ft 298 kts 258°
2026-04-13 20:15 10.39613 -64.40111 12094 ft 299 kts 258°
2026-04-13 20:16 10.39223 -64.42183 11671 ft 299 kts 258°
2026-04-13 20:16 10.38834 -64.44258 11247 ft 299 kts 258°
2026-04-13 20:16 10.38447 -64.46338 10821 ft 300 kts 258°
2026-04-13 20:16 10.38055 -64.48407 10399 ft 295 kts 258°
2026-04-13 20:17 10.37682 -64.50441 9983 ft 291 kts 259°
2026-04-13 20:17 10.37306 -64.52448 9573 ft 288 kts 258°
2026-04-13 20:17 10.36931 -64.54434 9168 ft 285 kts 259°
2026-04-13 20:17 10.36570 -64.56380 8771 ft 283 kts 258°
2026-04-13 20:18 10.36197 -64.58365 8367 ft 282 kts 259°
2026-04-13 20:18 10.35842 -64.60285 7976 ft 281 kts 258°
2026-04-13 20:18 10.35471 -64.62227 7583 ft 279 kts 258°
2026-04-13 20:18 10.35115 -64.64161 7188 ft 278 kts 259°
2026-04-13 20:19 10.34755 -64.66085 6791 ft 276 kts 258°
2026-04-13 20:19 10.34391 -64.67997 6407 ft 275 kts 258°
2026-04-13 20:19 10.34040 -64.69904 6021 ft 274 kts 259°
2026-04-13 20:19 10.33685 -64.71810 5632 ft 275 kts 258°
2026-04-13 20:20 10.33326 -64.73680 5256 ft 263 kts 258°
2026-04-13 20:20 10.32773 -64.75359 4895 ft 249 kts 240°
2026-04-13 20:20 10.31819 -64.76775 4561 ft 238 kts 228°
2026-04-13 20:20 10.30584 -64.77847 4226 ft 230 kts 212°
2026-04-13 20:21 10.29203 -64.78557 3915 ft 213 kts 197°
2026-04-13 20:21 10.27813 -64.78890 3620 ft 199 kts 185°
2026-04-13 20:21 10.26465 -64.79022 3353 ft 193 kts 184°
2026-04-13 20:21 10.25142 -64.79179 3082 ft 189 kts 180°
2026-04-13 20:22 10.23883 -64.78922 2833 ft 182 kts 154°
2026-04-13 20:22 10.22812 -64.78300 2644 ft 175 kts 138°
2026-04-13 20:22 10.21871 -64.77514 2415 ft 177 kts 139°
2026-04-13 20:22 10.20881 -64.76788 2181 ft 179 kts 139°
2026-04-13 20:23 10.19889 -64.76018 1940 ft 181 kts 138°
2026-04-13 20:23 10.18881 -64.75239 1696 ft 183 kts 138°
2026-04-13 20:23 10.17881 -64.74464 1450 ft 175 kts 138°
2026-04-13 20:23 10.16950 -64.73747 1229 ft 160 kts 137°
2026-04-13 20:24 10.16140 -64.73124 1034 ft 136 kts 136°
2026-04-13 20:24 10.15415 -64.72562 843 ft 127 kts 136°
2026-04-13 20:24 10.14737 -64.72031 675 ft 122 kts 135°
2026-04-13 20:24 10.14063 -64.71516 512 ft 120 kts 137°
2026-04-13 20:25 10.13412 -64.71000 352 ft 118 kts 138°
2026-04-13 20:25 10.12772 -64.70500 199 ft 116 kts 140°
2026-04-13 20:25 10.12135 -64.70006 53 ft 114 kts 143°
2026-04-13 20:25 10.11556 -64.69564 29 ft 83 kts 142°
2026-04-13 20:26 10.11246 -64.69328 32 ft 41 kts 141°
2026-04-13 20:26 10.11076 -64.69190 33 ft 23 kts 143°
2026-04-13 20:26 10.10944 -64.69088 32 ft 25 kts 142°
2026-04-13 20:26 10.10808 -64.68985 32 ft 25 kts 142°
2026-04-13 20:27 10.10740 -64.68856 32 ft 18 kts 81°
2026-04-13 20:27 10.10763 -64.68747 34 ft 16 kts 77°
2026-04-13 20:27 10.10774 -64.68681 34 ft 4 kts 21°
2026-04-13 20:27 10.10784 -64.68681 34 ft 0 kts 347°